"Data set title: Gaging station water sample data. Usage: Event based table used with water chemistry collection from 01-Oct-2020 to 30-Sep-2021",,,,,,,,,,,,
,,,,,,,,,,,,,
"Site","Date","RecNum","SiteID","Flag_SiteID","LOGGERID","PROGID","VNOTCH_INST_0_0_01","Flag_VNOTCH_INST_0_0_01","SAMPLE_INST_0_0_01","Flag_SAMPLE_INST_0_0_01","STAGE_INST_0_0_01","Flag_STAGE_INST_0_0_01"
"","yyyy-MM-dd HH:mm:ss","count","","none","none","none","none","none","count","none","ft","none"
"nominal","datetime","nominal","data","code","nominal","nominal","data","code","data","code","data","code"
"GSWS06_118",2020-10-01 11:24:15,673,106.00,"",118,34812.0,1,"",67,"",0.0560,""
"GSWS06_118",2020-10-02 00:42:15,674,106.00,"",118,34812.0,1,"",68,"",0.0540,""
"GSWS06_118",2020-10-02 14:00:15,675,106.00,"",118,34812.0,1,"",69,"",0.0540,""
"GSWS06_118",2020-10-03 03:18:15,676,106.00,"",118,34812.0,1,"",70,"",0.0530,""
"GSWS06_118",2020-10-03 16:36:15,677,106.00,"",118,34812.0,1,"",71,"",0.0520,""
"GSWS06_118",2020-10-04 05:54:15,678,106.00,"",118,34812.0,1,"",72,"",0.0520,""
"GSWS06_118",2020-10-04 19:12:15,679,106.00,"",118,34812.0,1,"",73,"",0.0500,""
"GSWS06_118",2020-10-05 08:30:15,680,106.00,"",118,34812.0,1,"",74,"",0.0510,""
"GSWS06_118",2020-10-05 21:48:15,681,106.00,"",118,34812.0,1,"",75,"",0.0480,""
"GSWS06_118",2020-10-06 11:06:15,682,106.00,"",118,34812.0,1,"",76,"",0.0490,""
"GSWS06_118",2020-10-07 00:24:15,683,106.00,"",118,34812.0,0,"",1,"",0.0160,""
"GSWS06_118",2020-10-07 13:42:15,684,106.00,"",118,34812.0,0,"",2,"",0.0180,""
"GSWS06_118",2020-10-08 03:00:15,685,106.00,"",118,34812.0,0,"",3,"",0.0180,""
"GSWS06_118",2020-10-08 16:18:15,686,106.00,"",118,34812.0,0,"",4,"",0.0180,""
"GSWS06_118",2020-10-09 05:36:15,687,106.00,"",118,34812.0,0,"",5,"",0.0180,""
"GSWS06_118",2020-10-09 18:54:15,688,106.00,"",118,34812.0,0,"",6,"",0.0180,""
"GSWS06_118",2020-10-10 08:12:15,689,106.00,"",118,34812.0,0,"",7,"",0.0720,""
"GSWS06_118",2020-10-10 21:30:15,690,106.00,"",118,34812.0,0,"",8,"",0.0380,""
"GSWS06_118",2020-10-11 10:48:15,691,106.00,"",118,34812.0,0,"",9,"",0.0390,""
"GSWS06_118",2020-10-12 00:06:15,692,106.00,"",118,34812.0,0,"",10,"",0.0860,""
"GSWS06_118",2020-10-12 13:24:15,693,106.00,"",118,34812.0,0,"",11,"",0.0410,""
"GSWS06_118",2020-10-13 02:42:15,694,106.00,"",118,34812.0,0,"",12,"",0.0290,""
"GSWS06_118",2020-10-13 16:00:15,695,106.00,"",118,34812.0,0,"",13,"",0.0640,""
"GSWS06_118",2020-10-14 05:18:15,696,106.00,"",118,34812.0,0,"",14,"",0.0390,""
"GSWS06_118",2020-10-14 18:36:15,697,106.00,"",118,34812.0,0,"",15,"",0.0290,""
"GSWS06_118",2020-10-15 07:54:15,698,106.00,"",118,34812.0,0,"",16,"",0.0270,""
"GSWS06_118",2020-10-15 21:12:15,699,106.00,"",118,34812.0,0,"",17,"",0.0240,""
"GSWS06_118",2020-10-16 10:30:15,700,106.00,"",118,34812.0,0,"",18,"",0.0240,""
"GSWS06_118",2020-10-16 23:48:15,701,106.00,"",118,34812.0,0,"",19,"",0.0230,""
"GSWS06_118",2020-10-17 13:06:15,702,106.00,"",118,34812.0,0,"",20,"",0.0230,""
"GSWS06_118",2020-10-18 02:24:15,703,106.00,"",118,34812.0,0,"",21,"",0.0230,""
"GSWS06_118",2020-10-18 15:42:15,704,106.00,"",118,34812.0,0,"",22,"",0.0220,""
"GSWS06_118",2020-10-19 05:00:15,705,106.00,"",118,34812.0,0,"",23,"",0.0220,""
"GSWS06_118",2020-10-19 18:18:15,706,106.00,"",118,34812.0,0,"",24,"",0.0220,""
"GSWS06_118",2020-10-20 07:36:15,707,106.00,"",118,34812.0,0,"",25,"",0.0200,""
"GSWS06_118",2020-10-20 20:54:15,708,106.00,"",118,34812.0,0,"",26,"",0.0200,""
"GSWS06_118",2020-10-21 10:12:15,709,106.00,"",118,34812.0,0,"",27,"",0.0240,""
"GSWS06_118",2020-10-21 23:30:15,710,106.00,"",118,34812.0,0,"",28,"",0.0230,""
"GSWS06_118",2020-10-22 12:48:15,711,106.00,"",118,34812.0,0,"",29,"",0.0230,""
"GSWS06_118",2020-10-23 02:06:15,712,106.00,"",118,34812.0,0,"",30,"",0.0230,""
"GSWS06_118",2020-10-23 15:24:15,713,106.00,"",118,34812.0,0,"",31,"",0.0230,""
"GSWS06_118",2020-10-24 04:42:15,714,106.00,"",118,34812.0,0,"",32,"",0.0300,""
"GSWS06_118",2020-10-24 18:00:15,715,106.00,"",118,34812.0,0,"",33,"",0.0290,""
"GSWS06_118",2020-10-25 07:18:15,716,106.00,"",118,34812.0,0,"",34,"",0.0370,""
"GSWS06_118",2020-10-25 20:36:15,717,106.00,"",118,34812.0,0,"",35,"",0.0430,""
"GSWS06_118",2020-10-26 09:54:15,718,106.00,"",118,34812.0,0,"",36,"",0.0440,""
"GSWS06_118",2020-10-26 23:12:15,719,106.00,"",118,34812.0,0,"",37,"",0.0440,""
"GSWS06_118",2020-10-27 12:30:15,720,106.00,"",118,34812.0,0,"",38,"",0.0450,""
"GSWS06_118",2020-10-28 01:48:15,721,106.00,"",118,34812.0,0,"",39,"",0.0450,""
"GSWS06_118",2020-10-28 15:06:15,722,106.00,"",118,34812.0,0,"",40,"",0.0480,""
"GSWS06_118",2020-10-28 17:36:45,723,106.00,"",118,34812.0,0,"",41,"",0.0220,""
"GSWS06_118",2020-10-29 04:24:15,724,106.00,"",118,34812.0,0,"",1,"",0.0200,""
"GSWS06_118",2020-10-29 17:42:15,725,106.00,"",118,34812.0,0,"",2,"",0.0220,""
"GSWS06_118",2020-10-30 07:00:15,726,106.00,"",118,34812.0,0,"",3,"",0.0220,""
"GSWS06_118",2020-10-30 20:18:15,727,106.00,"",118,34812.0,0,"",4,"",0.0220,""
"GSWS06_118",2020-10-31 09:36:15,728,106.00,"",118,34812.0,0,"",5,"",0.0220,""
"GSWS06_118",2020-10-31 22:54:15,729,106.00,"",118,34812.0,0,"",6,"",0.0220,""
"GSWS06_118",2020-11-01 12:12:15,730,106.00,"",118,34812.0,0,"",7,"",0.0220,""
"GSWS06_118",2020-11-02 01:30:15,731,106.00,"",118,34812.0,0,"",8,"",0.0220,""
"GSWS06_118",2020-11-02 14:48:15,732,106.00,"",118,34812.0,0,"",9,"",0.0220,""
"GSWS06_118",2020-11-03 04:06:15,733,106.00,"",118,34812.0,0,"",10,"",0.0200,""
"GSWS06_118",2020-11-03 17:24:15,734,106.00,"",118,34812.0,0,"",11,"",0.0200,""
"GSWS06_118",2020-11-04 06:42:15,735,106.00,"",118,34812.0,0,"",12,"",0.0210,""
"GSWS06_118",2020-11-04 20:00:15,736,106.00,"",118,34812.0,0,"",13,"",0.0210,""
"GSWS06_118",2020-11-05 09:18:15,737,106.00,"",118,34812.0,0,"",14,"",0.0210,""
"GSWS06_118",2020-11-05 22:36:15,738,106.00,"",118,34812.0,0,"",15,"",0.0410,""
"GSWS06_118",2020-11-06 11:54:15,739,106.00,"",118,34812.0,0,"",16,"",0.0430,""
"GSWS06_118",2020-11-07 01:12:15,740,106.00,"",118,34812.0,0,"",17,"",0.0360,""
"GSWS06_118",2020-11-07 14:30:15,741,106.00,"",118,34812.0,0,"",18,"",0.0290,""
"GSWS06_118",2020-11-08 03:48:15,742,106.00,"",118,34812.0,0,"",19,"",0.0280,""
"GSWS06_118",2020-11-08 17:06:15,743,106.00,"",118,34812.0,0,"",20,"",0.0260,""
"GSWS06_118",2020-11-09 06:24:15,744,106.00,"",118,34812.0,0,"",21,"",0.0260,""
"GSWS06_118",2020-11-09 19:42:15,745,106.00,"",118,34812.0,0,"",22,"",0.0240,""
"GSWS06_118",2020-11-10 09:00:15,746,106.00,"",118,34812.0,0,"",23,"",0.0240,""
"GSWS06_118",2020-11-10 22:18:15,747,106.00,"",118,34812.0,0,"",24,"",0.0630,""
"GSWS06_118",2020-11-11 11:36:15,748,106.00,"",118,34812.0,0,"",25,"",0.0480,""
"GSWS06_118",2020-11-12 00:54:15,749,106.00,"",118,34812.0,0,"",26,"",0.0400,""
"GSWS06_118",2020-11-12 14:12:15,750,106.00,"",118,34812.0,0,"",27,"",0.0330,""
"GSWS06_118",2020-11-13 03:30:15,751,106.00,"",118,34812.0,0,"",28,"",0.0520,""
"GSWS06_118",2020-11-13 16:48:15,752,106.00,"",118,34812.0,0,"",29,"",0.1200,""
"GSWS06_118",2020-11-14 06:06:15,753,106.00,"",118,34812.0,0,"",30,"",0.0840,""
"GSWS06_118",2020-11-14 19:24:15,754,106.00,"",118,34812.0,0,"",31,"",0.2340,""
"GSWS06_118",2020-11-15 08:42:15,755,106.00,"",118,34812.0,0,"",32,"",0.2430,""
"GSWS06_118",2020-11-15 22:00:15,756,106.00,"",118,34812.0,0,"",33,"",0.1730,""
"GSWS06_118",2020-11-16 11:18:15,757,106.00,"",118,34812.0,0,"",34,"",0.1540,""
"GSWS06_118",2020-11-17 00:36:15,758,106.00,"",118,34812.0,0,"",35,"",0.1350,""
"GSWS06_118",2020-11-17 13:54:15,759,106.00,"",118,34812.0,0,"",36,"",0.1250,""
"GSWS06_118",2020-11-18 03:12:15,760,106.00,"",118,34812.0,0,"",37,"",0.1280,""
"GSWS06_118",2020-11-18 14:50:15,761,106.00,"",118,34812.0,0,"",38,"",0.1410,""
"GSWS06_118",2020-11-18 16:30:15,762,106.00,"",118,34812.0,0,"",1,"",0.1380,""
"GSWS06_118",2020-11-19 05:48:15,763,106.00,"",118,34812.0,0,"",2,"",0.1420,""
"GSWS06_118",2020-11-19 19:06:15,764,106.00,"",118,34812.0,0,"",3,"",0.1600,""
"GSWS06_118",2020-11-20 08:24:15,765,106.00,"",118,34812.0,0,"",4,"",0.1560,""
"GSWS06_118",2020-11-20 21:42:15,766,106.00,"",118,34812.0,0,"",5,"",0.1490,""
"GSWS06_118",2020-11-21 11:00:15,767,106.00,"",118,34812.0,0,"",6,"",0.1420,""
"GSWS06_118",2020-11-22 00:18:15,768,106.00,"",118,34812.0,0,"",7,"",0.1350,""
"GSWS06_118",2020-11-22 13:36:15,769,106.00,"",118,34812.0,0,"",8,"",0.1290,""
"GSWS06_118",2020-11-23 02:54:15,770,106.00,"",118,34812.0,0,"",9,"",0.1240,""
"GSWS06_118",2020-11-23 16:12:15,771,106.00,"",118,34812.0,0,"",10,"",0.1210,""
"GSWS06_118",2020-11-24 05:30:15,772,106.00,"",118,34812.0,0,"",11,"",0.1160,""
"GSWS06_118",2020-11-24 18:48:15,773,106.00,"",118,34812.0,0,"",12,"",0.1130,""
"GSWS06_118",2020-11-25 08:06:15,774,106.00,"",118,34812.0,0,"",13,"",0.1160,""
"GSWS06_118",2020-11-25 21:24:15,775,106.00,"",118,34812.0,0,"",14,"",0.1160,""
"GSWS06_118",2020-11-26 10:42:15,776,106.00,"",118,34812.0,0,"",15,"",0.1200,""
"GSWS06_118",2020-11-27 00:00:15,777,106.00,"",118,34812.0,0,"",16,"",0.1220,""
"GSWS06_118",2020-11-27 13:18:15,778,106.00,"",118,34812.0,0,"",17,"",0.1220,""
"GSWS06_118",2020-11-28 02:36:15,779,106.00,"",118,34812.0,0,"",18,"",0.1220,""
"GSWS06_118",2020-11-28 15:54:15,780,106.00,"",118,34812.0,0,"",19,"",0.1220,""
"GSWS06_118",2020-11-29 05:12:15,781,106.00,"",118,34812.0,0,"",20,"",0.1220,""
"GSWS06_118",2020-11-29 18:30:15,782,106.00,"",118,34812.0,0,"",21,"",0.1200,""
"GSWS06_118",2020-11-30 07:48:15,783,106.00,"",118,34812.0,0,"",22,"",0.1220,""
"GSWS06_118",2020-11-30 21:06:15,784,106.00,"",118,34812.0,0,"",23,"",0.1300,""
"GSWS06_118",2020-12-01 10:24:15,785,106.00,"",118,34812.0,0,"",24,"",0.1280,""
"GSWS06_118",2020-12-01 23:42:15,786,106.00,"",118,34812.0,0,"",25,"",0.1270,""
"GSWS06_118",2020-12-02 13:00:15,787,106.00,"",118,34812.0,0,"",26,"",0.1270,""
"GSWS06_118",2020-12-03 02:18:15,788,106.00,"",118,34812.0,0,"",27,"",0.1260,""
"GSWS06_118",2020-12-03 15:36:15,789,106.00,"",118,34812.0,0,"",28,"",0.1250,""
"GSWS06_118",2020-12-04 04:54:15,790,106.00,"",118,34812.0,0,"",29,"",0.1230,""
"GSWS06_118",2020-12-04 18:12:15,791,106.00,"",118,34812.0,0,"",30,"",0.1200,""
"GSWS06_118",2020-12-05 07:30:15,792,106.00,"",118,34812.0,0,"",31,"",0.1190,""
"GSWS06_118",2020-12-05 20:48:15,793,106.00,"",118,34812.0,0,"",32,"",0.1170,""
"GSWS06_118",2020-12-06 10:06:15,794,106.00,"",118,34812.0,0,"",33,"",0.1200,""
"GSWS06_118",2020-12-06 23:24:15,795,106.00,"",118,34812.0,0,"",34,"",0.1170,""
"GSWS06_118",2020-12-07 12:42:15,796,106.00,"",118,34812.0,0,"",35,"",0.1150,""
"GSWS06_118",2020-12-08 02:00:15,797,106.00,"",118,34812.0,0,"",36,"",0.1130,""
"GSWS06_118",2020-12-08 15:18:15,798,106.00,"",118,34812.0,0,"",37,"",0.1110,""
"GSWS06_118",2020-12-09 04:36:15,799,106.00,"",118,34812.0,0,"",38,"",0.1110,""
"GSWS06_118",2020-12-09 14:58:30,800,106.00,"",118,34812.0,0,"",39,"",0.1130,""
"GSWS06_118",2020-12-09 16:18:45,801,106.00,"",118,34812.0,0,"",1,"",0.1010,""
"GSWS06_118",2020-12-09 17:54:15,802,106.00,"",118,34812.0,0,"",2,"",0.1010,""
"GSWS06_118",2020-12-10 07:12:15,803,106.00,"",118,34812.0,0,"",3,"",0.1010,""
"GSWS06_118",2020-12-10 20:30:15,804,106.00,"",118,34812.0,0,"",4,"",0.1000,""
"GSWS06_118",2020-12-11 09:48:15,805,106.00,"",118,34812.0,0,"",5,"",0.1000,""
"GSWS06_118",2020-12-11 23:06:15,806,106.00,"",118,34812.0,0,"",6,"",0.1000,""
"GSWS06_118",2020-12-12 12:24:15,807,106.00,"",118,34812.0,0,"",7,"",0.0990,""
"GSWS06_118",2020-12-13 01:42:15,808,106.00,"",118,34812.0,0,"",8,"",0.0990,""
"GSWS06_118",2020-12-13 15:00:15,809,106.00,"",118,34812.0,0,"",9,"",0.1240,""
"GSWS06_118",2020-12-14 04:18:15,810,106.00,"",118,34812.0,0,"",10,"",0.1260,""
"GSWS06_118",2020-12-14 17:36:15,811,106.00,"",118,34812.0,0,"",11,"",0.1250,""
"GSWS06_118",2020-12-15 06:54:15,812,106.00,"",118,34812.0,0,"",12,"",0.1290,""
"GSWS06_118",2020-12-15 20:12:15,813,106.00,"",118,34812.0,0,"",13,"",0.1590,""
"GSWS06_118",2020-12-16 09:30:15,814,106.00,"",118,34812.0,0,"",14,"",0.1710,""
"GSWS06_118",2020-12-16 22:48:15,815,106.00,"",118,34812.0,0,"",15,"",0.2880,""
"GSWS06_118",2020-12-17 12:06:15,816,106.00,"",118,34812.0,0,"",16,"",0.3100,""
"GSWS06_118",2020-12-18 01:24:15,817,106.00,"",118,34812.0,0,"",17,"",0.2940,""
"GSWS06_118",2020-12-18 14:42:15,818,106.00,"",118,34812.0,0,"",18,"",0.2800,""
"GSWS06_118",2020-12-19 04:00:15,819,106.00,"",118,34812.0,0,"",19,"",0.2820,""
"GSWS06_118",2020-12-19 17:18:15,820,106.00,"",118,34812.0,0,"",20,"",0.2770,""
"GSWS06_118",2020-12-19 23:56:15,821,106.00,"",118,34812.0,0,"",21,"",0.4120,""
"GSWS06_118",2020-12-20 04:22:15,822,106.00,"",118,34812.0,0,"",22,"",0.5180,""
"GSWS06_118",2020-12-20 07:57:45,823,106.00,"",118,34812.0,0,"",23,"",0.6310,""
"GSWS06_118",2020-12-20 11:19:45,824,106.00,"",118,34812.0,0,"",24,"",0.7150,""
"GSWS06_118",2020-12-20 14:01:45,825,106.00,"",118,34812.0,0,"",25,"",0.7730,""
"GSWS06_118",2020-12-20 16:43:45,826,106.00,"",118,34812.0,0,"",26,"",0.7860,""
"GSWS06_118",2020-12-20 19:25:45,827,106.00,"",118,34812.0,0,"",27,"",0.7830,""
"GSWS06_118",2020-12-20 22:07:45,828,106.00,"",118,34812.0,0,"",28,"",0.7710,""
"GSWS06_118",2020-12-21 00:49:45,829,106.00,"",118,34812.0,0,"",29,"",0.7630,""
"GSWS06_118",2020-12-21 03:31:45,830,106.00,"",118,34812.0,0,"",30,"",0.7430,""
"GSWS06_118",2020-12-21 06:53:45,831,106.00,"",118,34812.0,0,"",31,"",0.7130,""
"GSWS06_118",2020-12-21 10:15:45,832,106.00,"",118,34812.0,0,"",32,"",0.6830,""
"GSWS06_118",2020-12-21 13:37:45,833,106.00,"",118,34812.0,0,"",33,"",0.6560,""
"GSWS06_118",2020-12-21 18:03:45,834,106.00,"",118,34812.0,0,"",34,"",0.6230,""
"GSWS06_118",2020-12-21 22:29:45,835,106.00,"",118,34812.0,0,"",35,"",0.5940,""
"GSWS06_118",2020-12-22 02:55:45,836,106.00,"",118,34812.0,0,"",36,"",0.5570,""
"GSWS06_118",2020-12-22 07:21:45,837,106.00,"",118,34812.0,0,"",37,"",0.5260,""
"GSWS06_118",2020-12-22 13:59:45,838,106.00,"",118,34812.0,0,"",38,"",0.4870,""
"GSWS06_118",2020-12-22 20:37:45,839,106.00,"",118,34812.0,0,"",39,"",0.4850,""
"GSWS06_118",2020-12-23 03:15:45,840,106.00,"",118,34812.0,0,"",40,"",0.4510,""
"GSWS06_118",2020-12-23 09:53:45,841,106.00,"",118,34812.0,0,"",41,"",0.4210,""
"GSWS06_118",2020-12-23 16:31:45,842,106.00,"",118,34812.0,0,"",42,"",0.3980,""
"GSWS06_118",2020-12-23 23:09:45,843,106.00,"",118,34812.0,0,"",43,"",0.3770,""
"GSWS06_118",2020-12-24 05:47:45,844,106.00,"",118,34812.0,0,"",44,"",0.3580,""
"GSWS06_118",2020-12-24 19:05:45,845,106.00,"",118,34812.0,0,"",45,"",0.3280,""
"GSWS06_118",2020-12-25 08:23:45,846,106.00,"",118,34812.0,0,"",46,"",0.3070,""
"GSWS06_118",2020-12-25 21:41:45,847,106.00,"",118,34812.0,0,"",47,"",0.3010,""
"GSWS06_118",2020-12-26 10:59:45,848,106.00,"",118,34812.0,0,"",48,"",0.2910,""
"GSWS06_118",2020-12-27 00:17:45,849,106.00,"",118,34812.0,0,"",49,"",0.2850,""
"GSWS06_118",2020-12-27 13:35:45,850,106.00,"",118,34812.0,0,"",50,"",0.2820,""
"GSWS06_118",2020-12-28 02:53:45,851,106.00,"",118,34812.0,0,"",51,"",0.2800,""
"GSWS06_118",2020-12-28 16:11:45,852,106.00,"",118,34812.0,0,"",52,"",0.2750,""
"GSWS06_118",2020-12-29 05:29:45,853,106.00,"",118,34812.0,0,"",53,"",0.2670,""
"GSWS06_118",2020-12-29 15:37:30,854,106.00,"",118,34812.0,0,"",1,"",0.2570,""
"GSWS06_118",2020-12-29 18:47:45,855,106.00,"",118,34812.0,0,"",1,"",0.2550,""
"GSWS06_118",2020-12-30 08:05:45,856,106.00,"",118,34812.0,0,"",2,"",0.2450,""
"GSWS06_118",2020-12-30 21:23:45,857,106.00,"",118,34812.0,0,"",3,"",0.2560,""
"GSWS06_118",2020-12-31 10:41:45,858,106.00,"",118,34812.0,0,"",4,"",0.2730,""
"GSWS06_118",2020-12-31 23:59:45,859,106.00,"",118,34812.0,0,"",5,"",0.2720,""
"GSWS06_118",2021-01-01 13:17:45,860,106.00,"",118,34812.0,0,"",6,"",0.2780,""
"GSWS06_118",2021-01-02 02:35:45,861,106.00,"",118,34812.0,0,"",7,"",0.3060,""
"GSWS06_118",2021-01-02 15:53:45,862,106.00,"",118,34812.0,0,"",8,"",0.3460,""
"GSWS06_118",2021-01-02 22:31:45,863,106.00,"",118,34812.0,0,"",9,"",0.4480,""
"GSWS06_118",2021-01-03 02:57:45,864,106.00,"",118,34812.0,0,"",10,"",0.5100,""
"GSWS06_118",2021-01-03 07:23:45,865,106.00,"",118,34812.0,0,"",11,"",0.5860,""
"GSWS06_118",2021-01-03 11:49:45,866,106.00,"",118,34812.0,0,"",12,"",0.6070,""
"GSWS06_118",2021-01-03 16:15:45,867,106.00,"",118,34812.0,0,"",13,"",0.5980,""
"GSWS06_118",2021-01-03 20:41:45,868,106.00,"",118,34812.0,0,"",14,"",0.5800,""
"GSWS06_118",2021-01-04 01:07:45,869,106.00,"",118,34812.0,0,"",15,"",0.5710,""
"GSWS06_118",2021-01-04 05:33:45,870,106.00,"",118,34812.0,0,"",16,"",0.5530,""
"GSWS06_118",2021-01-04 09:59:45,871,106.00,"",118,34812.0,0,"",17,"",0.5460,""
"GSWS06_118",2021-01-04 14:25:45,872,106.00,"",118,34812.0,0,"",18,"",0.5460,""
"GSWS06_118",2021-01-04 18:51:45,873,106.00,"",118,34812.0,0,"",19,"",0.5270,""
"GSWS06_118",2021-01-04 23:17:45,874,106.00,"",118,34812.0,0,"",20,"",0.5160,""
"GSWS06_118",2021-01-05 03:43:45,875,106.00,"",118,34812.0,0,"",21,"",0.5110,""
"GSWS06_118",2021-01-05 10:21:45,876,106.00,"",118,34812.0,0,"",22,"",0.4990,""
"GSWS06_118",2021-01-05 16:59:45,877,106.00,"",118,34812.0,0,"",23,"",0.4810,""
"GSWS06_118",2021-01-05 23:37:45,878,106.00,"",118,34812.0,0,"",24,"",0.4670,""
"GSWS06_118",2021-01-06 06:15:45,879,106.00,"",118,34812.0,0,"",25,"",0.4700,""
"GSWS06_118",2021-01-06 12:53:45,880,106.00,"",118,34812.0,0,"",26,"",0.4480,""
"GSWS06_118",2021-01-06 19:31:45,881,106.00,"",118,34812.0,0,"",27,"",0.4490,""
"GSWS06_118",2021-01-07 02:09:45,882,106.00,"",118,34812.0,0,"",28,"",0.4270,""
"GSWS06_118",2021-01-07 08:47:45,883,106.00,"",118,34812.0,0,"",29,"",0.4110,""
"GSWS06_118",2021-01-07 15:25:45,884,106.00,"",118,34812.0,0,"",30,"",0.4040,""
"GSWS06_118",2021-01-07 22:03:45,885,106.00,"",118,34812.0,0,"",31,"",0.3970,""
"GSWS06_118",2021-01-08 04:41:45,886,106.00,"",118,34812.0,0,"",32,"",0.3890,""
"GSWS06_118",2021-01-08 11:19:45,887,106.00,"",118,34812.0,0,"",33,"",0.3840,""
"GSWS06_118",2021-01-08 17:57:45,888,106.00,"",118,34812.0,0,"",34,"",0.3730,""
"GSWS06_118",2021-01-09 00:35:45,889,106.00,"",118,34812.0,0,"",35,"",0.3600,""
"GSWS06_118",2021-01-09 07:13:45,890,106.00,"",118,34812.0,0,"",36,"",0.3510,""
"GSWS06_118",2021-01-09 20:31:45,891,106.00,"",118,34812.0,0,"",37,"",0.3380,""
"GSWS06_118",2021-01-10 09:49:45,892,106.00,"",118,34812.0,0,"",38,"",0.3210,""
"GSWS06_118",2021-01-10 23:07:45,893,106.00,"",118,34812.0,0,"",39,"",0.3060,""
"GSWS06_118",2021-01-11 12:25:45,894,106.00,"",118,34812.0,0,"",40,"",0.2940,""
"GSWS06_118",2021-01-12 01:43:45,895,106.00,"",118,34812.0,0,"",41,"",0.3000,""
"GSWS06_118",2021-01-12 08:21:45,896,106.00,"",118,34812.0,0,"",42,"",0.3670,""
"GSWS06_118",2021-01-12 14:40:30,897,106.00,"",118,34812.0,0,"",43,"",0.5090,""
"GSWS06_118",2021-01-12 18:53:00,898,106.00,"",118,34812.0,0,"",44,"",0.6310,""
"GSWS06_118",2021-01-12 22:15:00,899,106.00,"",118,34812.0,0,"",45,"",0.6810,""
"GSWS06_118",2021-01-13 00:57:00,900,106.00,"",118,34812.0,0,"",46,"",0.7370,""
"GSWS06_118",2021-01-13 03:39:00,901,106.00,"",118,34812.0,0,"",47,"",0.7600,""
"GSWS06_118",2021-01-13 06:21:00,902,106.00,"",118,34812.0,0,"",48,"",0.7570,""
"GSWS06_118",2021-01-13 09:03:00,903,106.00,"",118,34812.0,0,"",49,"",0.7540,""
"GSWS06_118",2021-01-13 11:45:00,904,106.00,"",118,34812.0,0,"",50,"",0.7460,""
"GSWS06_118",2021-01-13 15:07:00,905,106.00,"",118,34812.0,0,"",51,"",0.7230,""
"GSWS06_118",2021-01-13 18:29:00,906,106.00,"",118,34812.0,0,"",52,"",0.6920,""
"GSWS06_118",2021-01-13 21:51:00,907,106.00,"",118,34812.0,0,"",53,"",0.6600,""
"GSWS06_118",2021-01-14 01:13:00,908,106.00,"",118,34812.0,0,"",54,"",0.6300,""
"GSWS06_118",2021-01-14 05:39:00,909,106.00,"",118,34812.0,0,"",55,"",0.5980,""
"GSWS06_118",2021-01-14 10:05:00,910,106.00,"",118,34812.0,0,"",56,"",0.5640,""
"GSWS06_118",2021-01-14 14:31:00,911,106.00,"",118,34812.0,0,"",57,"",0.5340,""
"GSWS06_118",2021-01-14 21:09:00,912,106.00,"",118,34812.0,0,"",58,"",0.4950,""
"GSWS06_118",2021-01-15 03:47:00,913,106.00,"",118,34812.0,0,"",59,"",0.4650,""
"GSWS06_118",2021-01-15 10:25:00,914,106.00,"",118,34812.0,0,"",60,"",0.4600,""
"GSWS06_118",2021-01-15 17:03:00,915,106.00,"",118,34812.0,0,"",61,"",0.4290,""
"GSWS06_118",2021-01-15 23:41:00,916,106.00,"",118,34812.0,0,"",62,"",0.4020,""
"GSWS06_118",2021-01-16 06:19:00,917,106.00,"",118,34812.0,0,"",63,"",0.3760,""
"GSWS06_118",2021-01-16 12:57:00,918,106.00,"",118,34812.0,0,"",64,"",0.3570,""
"GSWS06_118",2021-01-17 02:15:00,919,106.00,"",118,34812.0,0,"",65,"",0.3230,""
"GSWS06_118",2021-01-17 15:33:00,920,106.00,"",118,34812.0,0,"",66,"",0.2960,""
"GSWS06_118",2021-01-18 04:51:00,921,106.00,"",118,34812.0,0,"",67,"",0.2810,""
"GSWS06_118",2021-01-18 18:09:00,922,106.00,"",118,34812.0,0,"",68,"",0.2690,""
"GSWS06_118",2021-01-19 07:27:00,923,106.00,"",118,34812.0,0,"",69,"",0.2510,""
"GSWS06_118",2021-01-19 20:45:00,924,106.00,"",118,34812.0,0,"",70,"",0.2360,""
"GSWS06_118",2021-01-20 10:03:00,925,106.00,"",118,34812.0,0,"",71,"",0.2260,""
"GSWS06_118",2021-01-20 23:21:00,926,106.00,"",118,34812.0,0,"",72,"",0.2170,""
"GSWS06_118",2021-01-21 12:39:00,927,106.00,"",118,34812.0,0,"",73,"",0.2090,""
"GSWS06_118",2021-01-21 17:30:45,928,106.00,"",118,34812.0,0,"",1,"",0.2070,""
"GSWS06_118",2021-01-22 01:57:00,929,106.00,"",118,34812.0,0,"",1,"",0.2020,""
"GSWS06_118",2021-01-22 15:15:00,930,106.00,"",118,34812.0,0,"",2,"",0.1930,""
"GSWS06_118",2021-01-23 04:33:00,931,106.00,"",118,34812.0,0,"",3,"",0.1850,""
"GSWS06_118",2021-01-23 17:51:00,932,106.00,"",118,34812.0,0,"",4,"",0.1790,""
"GSWS06_118",2021-01-24 07:09:00,933,106.00,"",118,34812.0,0,"",5,"",0.1750,""
"GSWS06_118",2021-01-24 20:27:00,934,106.00,"",118,34812.0,0,"",6,"",0.1710,""
"GSWS06_118",2021-01-25 09:45:00,935,106.00,"",118,34812.0,0,"",7,"",0.1640,""
"GSWS06_118",2021-01-25 23:03:00,936,106.00,"",118,34812.0,0,"",8,"",0.1590,""
"GSWS06_118",2021-01-26 12:21:00,937,106.00,"",118,34812.0,0,"",9,"",0.1590,""
"GSWS06_118",2021-01-27 01:39:00,938,106.00,"",118,34812.0,0,"",10,"",0.1560,""
"GSWS06_118",2021-01-27 14:57:00,939,106.00,"",118,34812.0,0,"",11,"",0.1540,""
"GSWS06_118",2021-01-28 04:15:00,940,106.00,"",118,34812.0,0,"",12,"",0.1490,""
"GSWS06_118",2021-01-28 17:33:00,941,106.00,"",118,34812.0,0,"",13,"",0.1470,""
"GSWS06_118",2021-01-29 06:51:00,942,106.00,"",118,34812.0,0,"",14,"",0.1410,""
"GSWS06_118",2021-01-29 20:09:00,943,106.00,"",118,34812.0,0,"",15,"",0.1370,""
"GSWS06_118",2021-01-30 09:27:00,944,106.00,"",118,34812.0,0,"",16,"",0.1360,""
"GSWS06_118",2021-01-30 22:45:00,945,106.00,"",118,34812.0,0,"",17,"",0.1360,""
"GSWS06_118",2021-01-31 12:03:00,946,106.00,"",118,34812.0,0,"",18,"",0.1580,""
"GSWS06_118",2021-02-01 01:21:00,947,106.00,"",118,34812.0,0,"",19,"",0.1470,""
"GSWS06_118",2021-02-01 14:39:00,948,106.00,"",118,34812.0,0,"",20,"",0.1410,""
"GSWS06_118",2021-02-02 03:57:00,949,106.00,"",118,34812.0,0,"",21,"",0.1440,""
"GSWS06_118",2021-02-02 17:15:00,950,106.00,"",118,34812.0,0,"",22,"",0.1590,""
"GSWS06_118",2021-02-03 06:33:00,951,106.00,"",118,34812.0,0,"",23,"",0.1640,""
"GSWS06_118",2021-02-03 19:51:00,952,106.00,"",118,34812.0,0,"",24,"",0.1630,""
"GSWS06_118",2021-02-04 09:09:00,953,106.00,"",118,34812.0,0,"",25,"",0.1630,""
"GSWS06_118",2021-02-04 22:27:00,954,106.00,"",118,34812.0,0,"",26,"",0.1630,""
"GSWS06_118",2021-02-05 11:45:00,955,106.00,"",118,34812.0,0,"",27,"",0.1680,""
"GSWS06_118",2021-02-06 01:03:00,956,106.00,"",118,34812.0,0,"",28,"",0.1690,""
"GSWS06_118",2021-02-06 14:21:00,957,106.00,"",118,34812.0,0,"",29,"",0.1690,""
"GSWS06_118",2021-02-07 03:39:00,958,106.00,"",118,34812.0,0,"",30,"",0.1710,""
"GSWS06_118",2021-02-07 16:57:00,959,106.00,"",118,34812.0,0,"",31,"",0.1760,""
"GSWS06_118",2021-02-08 06:15:00,960,106.00,"",118,34812.0,0,"",32,"",0.1790,""
"GSWS06_118",2021-02-08 19:33:00,961,106.00,"",118,34812.0,0,"",33,"",0.1800,""